Weather in Zolotkovo

Russia / Vladimir Oblast     55°31′48″N   41°06′07″E
temp.,
°C
wind,
m/s
gust,
m/s
humid.,
%
clouds,
%
prec.,
mm/h
press.,
hPa
HPBL,
m
9 december, thu
thu900:00−5nne4895100 0.4 1020267
03:00−6nne4995100 0.6 1020275
06:00−6nne4995100 0.4 1020295
09:00−7n4994100 1.2 1022310
12:00−6nne489198 0.2 1023329
15:00−8n4109374 0.3 1024343
18:00−11n411925 0.0 1027258
21:00−13nne310935 0.0 1028211
10 december, fri
fri1000:00−14nne39945 0.0 1030179
03:00−15ne28955 0.0 1031154
06:00−15ne28965 0.0 1032158
09:00−15ne39965 0.0 1034184
12:00−11ene37865 0.0 1034220
15:00−11ene39895 0.0 1034226
18:00−13ene310905 0.0 1036213
21:00−14ene310915 0.0 1036194
11 december, sat
sat1100:00−14ene39935 0.0 1036180
03:00−14e39935 0.0 1037164
06:00−14e310915 0.0 1037177
09:00−13e311895 0.0 1038200
12:00−9e311835 0.0 1037260
15:00−9e311855 0.0 1037277
18:00−10e312865 0.0 1038244
21:00−11ese312865 0.0 1038242
12 december, sun
sun1200:00−10ese312855 0.0 1038236
03:00−12ese38905 0.0 1039131
06:00−11ese310875 0.0 1039185
09:00−12se29906 0.0 1039156
12:00−7se398585 0.0 1039258
15:00−8se259273 0.0 103983
18:00−9se399196 0.0 1039153
21:00−9se3108999 0.0 1038166
13 december, mon
mon1300:00−10se278938 0.0 103899
03:00−10se27885 0.0 1038110
06:00−10se310865 0.0 1037161
09:00−9sse31182100 0.0 1037217
12:00−6sse31278100 0.0 1036327
15:00−5sse41179100 0.0 1035323
18:00−5sse41278100 0.0 1034329
21:00−5sse31278100 0.0 1033321